Regional Weather Roundup
Issued by NWS

Home | Current Version | Previous Version | Graphics & Text | Print | Product List | Glossary On
Versions: 1 2 3 4 5 6 7 8 9 10 11 12 13 14 15 16 17 18 19 20 21 22 23 24 25 26 27 28 29 30 31 32 33 34 35 36 37 38 39 40 41 42 43 44 45 46 47 48 49 50
000
ASUS45 KBOU 240507
RWRCO

WEATHER ROUNDUP FOR COLORADO
NATIONAL WEATHER SERVICE DENVER/BOULDER CO
1100 PM MDT SAT MAY 23 2015

NOTE: "FAIR" INDICATES FEW OR NO CLOUDS BELOW 12000 FEET WITH NO
SIGNIFICANT WEATHER AND/OR OBSTRUCTIONS TO VISIBILITY.

COZ001>005-013-030-031-240600-
...NORTHWEST COLORADO...

CITY           SKY/WX    TMP DP  RH WIND       PRES   REMARKS
CRAIG          MOCLDY    43  35  73 SE8       30.00S
HAYDEN         MOCLDY    39  34  81 E9        30.01F
MEEKER         MOCLDY    43  37  79 CALM      30.01S
MOUNT WERNER   NOT AVBL
STEAMBOAT SPGS MOCLDY    38  35  89 E5        30.03S
WALDEN         CLOUDY    36  34  93 SE6       30.04F
$$

COZ006>008-011-240600-
...WEST CENTRAL VALLEYS...

CITY           SKY/WX    TMP DP  RH WIND       PRES   REMARKS
GRAND JUNCTION MOCLDY    45  41  86 E10       29.98S
MONTROSE       MOCLDY    43  42  97 W5        30.04S
EAGLE          PTCLDY    41  37  87 E6        30.05S
RIFLE          MOCLDY    47  38  71 E5        29.99F
DELTA          LGT RAIN  47  42  84 MISG      30.02F
NUCLA          MOCLDY    43  41  93 CALM      30.05F
$$

COZ017>023-064>068-240600-
...SOUTHWEST COLORADO...

CITY           SKY/WX    TMP DP  RH WIND       PRES   REMARKS
DURANGO        CLOUDY    42  39  89 E3        30.05S
CORTEZ         MOCLDY    44  42  93 CALM      30.03F
PAGOSA SPRINGS CLOUDY    44  32  64 SW5       30.07S
TELLURIDE      PTCLDY    34  31  89 CALM      30.09F
WOLF CREEK PAS NOT AVBL
$$

COZ009-010-012-014-032>034-037-058>063-240600-
...CENTRAL COLORADO...

CITY           SKY/WX    TMP DP  RH WIND       PRES   REMARKS
ASPEN          CLOUDY    38  34  85 CALM      30.04S
BUENA VISTA    PTCLDY    40  31  70 NW12      30.01F
COPPER MTN     PTCLDY    28  21  74 SW5       30.14F WCI  23
BERTHOUD PASS  HAZE      19  12  73 NW13G23   30.15F VSB 1   WCI   7
COTTONWOOD PAS MOCLDY    39  27  60 W6        30.07F
GUNNISON       MOCLDY    43  30  61 SW5       30.07R
KREMMLING      MOCLDY    36  32  87 CALM      30.07F
LEADVILLE      PTCLDY    28  26  92 N5        30.07F WCI  23
SALIDA         PTCLDY    44  32  63 W6        30.07F
SUNLIGHT       MOCLDY    32  30  93 CALM      30.15S
WILKERSON PASS PTCLDY    30  19  64 MISG      30.13F
$$

COZ069>075-240600-
...SAN LUIS VALLEY/SANGRE DE CRISTO MOUNTAINS...

CITY           SKY/WX    TMP DP  RH WIND       PRES   REMARKS
ALAMOSA        PTCLDY    41  26  55 SW6       30.01R
LA VETA PASS   CLEAR    N/A N/A N/A MISG      30.09R
SAGUACHE       CLOUDY    45  30  57 N6        30.02S
$$

COZ035-036-038>040-240600-
...NORTHERN COLORADO FRONT RANGE...

CITY           SKY/WX    TMP DP  RH WIND       PRES   REMARKS
DENVER INTL AP PTCLDY    43  41  93 W7        29.94S
DMNS CITY PARK   N/A     44  42  94 S1G7      29.94S
AURORA         PTCLDY    42  42  99 SW6       29.96F
FRONT RANGE AP NOT AVBL
ERIE MUNI ARPT PTCLDY    45  43  92 SE5       29.94S
BOULDER MUN AP PTCLDY    45  45 100 SW3       29.93F
CENTENNIAL     PTCLDY    43  41  93 W6        29.96S
BROOMFIELD     NOT AVBL
FORT COLLINS   CLOUDY    48  43  81 NW5       29.94F
LONGMONT       CLOUDY    48  45  90 CALM      29.95F
$$

COZ041-046-047-076>085-087-088-240600-
...PIKES PEAK/PALMER DIVIDE AND SOUTHERN FOOTHILLS...

CITY           SKY/WX    TMP DP  RH WIND       PRES   REMARKS
COLO. SPRINGS  CLOUDY    49  40  71 E12       29.98R
A. F. ACADEMY  MOCLDY    45  39  77 N10       29.98R
ELLICOTT       NOT AVBL
FALCON         MOCLDY    45  38  79 N10       30.00R
FORT CARSON    CLOUDY    50  41  71 N12       29.95R
LIMON          CLOUDY    47  45  93 N10       29.95R
MONUMENT HILL  NOT AVBL
TRINIDAD       CLEAR     48  47  96 SE7       29.95R
$$

COZ042>045-048>051-090-091-240600-
...NORTHEAST COLORADO...

CITY           SKY/WX    TMP DP  RH WIND       PRES   REMARKS
GREELEY ARPT   CLOUDY    48  41  76 NW14      29.93F
AKRON          MOCLDY    48  47  96 NE7       29.94R
BURLINGTON     CLOUDY    51  49  92 SE9       29.92R
WRAY           CLOUDY   N/A N/A N/A NE8       29.93R
STERLING       CLOUDY    50  50 100 CALM      29.93R
HOLYOKE        NOT AVBL
FORT MORGAN    MOCLDY    46  44  93 W3        29.94S
$$

COZ086-089-092>099-240600-
...SOUTHEAST COLORADO...

CITY           SKY/WX    TMP DP  RH WIND       PRES   REMARKS
PUEBLO         MOCLDY    52  49  89 N3        29.91R
LA JUNTA       MOCLDY    52  49  89 S10       29.87R
LAMAR          NOT AVBL
SPRINGFIELD      N/A     56  55  97 VRB3      29.93R
$$


USA.gov is the U.S. government's official web portal to all federal, state and local government web resources and services.